STARLINK-3618, 51998

Orbit data source: Space-Track

STARLINK-3618, 51998 is a payload satellite owned by SpaceX/Seattle (US) in LEO that was launched on Wed, 09 Mar 2022 UTC via an FALCON 9 launch vehicle from the Air Force Eastern Test Range (AFETR). Payload-class satellites include a variety of spacecraft equipped with specific instruments for various scientific and technological missions. These include communications satellites like Starlink; space stations such as the ISS; scientific satellites like the Hubble; Earth observation satellites from companies like Planet Labs, Umbra, and HawkEye 360; GPS; miniature CubeSats for education and research; and military/defense satellites.

Loading next visibility...
Identifier
51998, 2022-025AU
Orbit
LEO
Country
Flag of USUS
Related business
Manufacturer
SpaceX/Seattle
Mission
Operational Commercial Communications
Bus & Motor
STARLINK, Unknown motor
Mass
297 kg wet, ~275 kg dry
Launch date (UTC)
2022-03-09 (4 years ago)
Launch vehicle
FALCON 9
Launch site
Air Force Eastern Test Range (AFETR)
Object type
Payload
Rocket body
Debris
Shape & HBR
Box + 1 Pan, 10.1 m
Radar Cross Section
13.562 m², Large (>1 m²)

Expand to show TLE details & history
Last TLE update: 1 day ago

TLE from 1 day ago
0 STARLINK-3618
1 51998U 22025AU  25346.45996128 -.00000389  00000-0 -63681-5 0  9998
2 51998  53.2175  50.7105 0001273  86.7854 273.3284 15.08830063207750
Epoch: 2025-12-12T11:02Z
TLE epoch observation values (Epoch: 2025-12-12T11:02:20.654Z)
Latitude
-0.00001°
Longitude
163.72316°
Altitude
540.62 km
Speed
7.593 km/s
True Right ascension
03h 22m 50s
True Declination
0° 00' 00"
Sunlit
Object was in full shadow at epoch
Visualization orbit readout
Latitude
Unknown
Longitude
Unknown
Altitude
Unknown
Speed
Unknown
Apparent Right ascension
Unknown
Apparent Declination
Unknown
Sunlit
N/A
Visualization observer readout
Local Sidereal Time
09:14:38
Azimuth
Unknown
Elevation
Unknown
Doppler factor
Unknown
Orbital elements
Apogee altitude
540.899 km
Perigee altitude
539.138 km
Semi-major axis
6,918.156 km
Eccentricity
0.00013
Inclination
53.2175°
RAAN
50.7105°
Arg. of periapsis
86.7854°
True anomaly
273.31384°
Mean anomaly
273.3284°
Eccentric anomaly
273.32112°
Mean motion
3.77188 °/min
Orbital period
95.44 mins
BSTAR
-0.0000063681
Loading maneuver chart data...
Computing Atmospheric mass density...
Loading historical data...
Loading historical data...
Loading historical data...
Loading historical data...
Loading historical data...
Loading historical data...
Loading historical data...

Documentation

Showing up to 5 results
|